Flag for Turkey Weather past 2 weeks in Konya, Turkey

Now
50 °F

Sprinkles. Partly cloudy.


Feels Like: 46 °F
Forecast: 46 / 57 °F
Wind: 10 mph from North

Location: Konya Airport

Current Time: Mar 27, 2015 at 8:08:04 PM

Latest Report: Mar 27, 2015 at 6:50 PM


Visibility: N/A

Pressure: 29.98 "Hg

Humidity: 88%

Dew point: 46 °F

Location of KonyaLocation

Historic Weather in Konya — Graph

°F

Konya temperature yesterday

Maximum temperature yesterday: 61 °F (at 2:50 PM)
Minimum temperature yesterday: 34 °F (at 5:50 AM)
Average temperature yesterday: 48 °F

Past Weeks' High & Low Weather Summary

 TemperatureHumidityPressure
High61 °F (Mar 26, 2:50 PM)100% (Mar 13, 5:50 AM)30.27 "Hg (Mar 13, 5:50 AM)
Low25 °F (Mar 18, 4:50 AM)29% (Mar 26, 2:50 PM)29.77 "Hg (Mar 21, 1:50 AM)
Average40 °F74%30.05 "Hg
* Reported Mar 12 6:50 PM — Mar 27 6:50 PM, Konya, Weather by CustomWeather, © 2015

Note: Actual official high and low records may vary slightly from our data, if they occured in-between our weather recording intervals... More about our weather records

Advertising

Konya weather history for previous 24 hours

 ConditionsComfort  
Time TempWeatherWind HumidityBarometerVisibility
6:50 PM
Fri, Mar 27
50 °FSprinkles. Partly cloudy.10 mph88%29.98 "HgN/A
5:50 PM57 °FBroken clouds.3 mph55%29.95 "HgN/A
4:50 PM55 °FBroken clouds.7 mph67%29.95 "HgN/A
3:50 PM55 °FBroken clouds.9 mph72%29.95 "HgN/A
2:50 PM59 °FBroken clouds.12 mph55%29.95 "HgN/A
1:50 PM61 °FBroken clouds.5 mph42%30.01 "HgN/A
12:50 PM61 °FBroken clouds.5 mph45%30.01 "HgN/A
11:50 AM57 °FBroken clouds.7 mph59%30.04 "HgN/A
10:50 AM55 °FSprinkles. Broken clouds.7 mph67%30.07 "HgN/A
9:50 AM57 °FSprinkles. Broken clouds.9 mph55%30.07 "HgN/A
8:50 AM57 °FBroken clouds.12 mph55%30.04 "HgN/A
7:50 AM48 °FBroken clouds.3 mph66%30.04 "HgN/A
6:50 AM46 °FBroken clouds.6 mph71%30.07 "HgN/A
5:50 AM46 °FBroken clouds.3 mph66%30.04 "HgN/A
4:50 AM46 °FPartly cloudy.2 mph66%30.04 "HgN/A
3:50 AM46 °FPartly cloudy.1 mph66%30.04 "HgN/A
2:50 AM46 °FPartly cloudy.3 mph76%30.04 "HgN/A
1:50 AM48 °FSprinkles. Partly cloudy.2 mph71%30.07 "HgN/A
12:50 AM48 °FPartly cloudy.5 mph66%30.07 "HgN/A
11:50 PM
Thu, Mar 26
48 °FPartly cloudy.2 mph66%30.07 "HgN/A
10:50 PM48 °FPartly cloudy.5 mph66%30.07 "HgN/A
9:50 PM48 °FPartly cloudy.6 mph62%30.09 "HgN/A
8:50 PM52 °FPassing clouds.2 mph50%30.09 "HgN/A
Weather by CustomWeather, © 2015

See weather overviewHow to use our weather pages